| time (UTC) | temp F | wind direction | speed MPH | gust MPH | rain 1hr in | rain 24hr in | rain mn in | humidity % | barometer mb |
| 20260906111058 | 64 | 13 | 1.0 | 3.0 | 0.00 | 0.00 | 0.00 | 94 | 1019.5 |
| 20260906110558 | 64 | 0 | 1.0 | 4.0 | 0.00 | 0.00 | 0.00 | 94 | 1019.4 |
| 20260906105558 | 64 | 42 | 2.0 | 5.0 | 0.00 | 0.00 | 0.00 | 94 | 1019.4 |
| 20260906105100 | 64 | 64 | 2.0 | 6.0 | 0.00 | 0.00 | 0.00 | 94 | 1019.4 |
| 20260906104604 | 64 | 19 | 3.0 | 6.0 | 0.00 | 0.00 | 0.00 | 94 | 1019.5 |
| 20260906104057 | 64 | 23 | 3.0 | 6.0 | 0.00 | 0.00 | 0.00 | 94 | 1019.4 |
| 20260906103558 | 64 | 57 | 3.0 | 6.0 | 0.00 | 0.00 | 0.00 | 94 | 1019.4 |
| 20260906103104 | 64 | 46 | 3.0 | 6.0 | 0.00 | 0.00 | 0.00 | 94 | 1019.4 |
| 20260906102600 | 64 | 34 | 3.0 | 6.0 | 0.00 | 0.00 | 0.00 | 94 | 1019.4 |
| 20260906102059 | 64 | 10 | 3.0 | 5.0 | 0.00 | 0.00 | 0.00 | 94 | 1019.2 |
| 20260906101604 | 64 | 20 | 3.0 | 5.0 | 0.00 | 0.00 | 0.00 | 94 | 1019.3 |
| 20260906101058 | 64 | 25 | 2.0 | 5.0 | 0.00 | 0.00 | 0.00 | 94 | 1019.3 |
| 20260906100558 | 64 | 23 | 2.0 | 5.0 | 0.00 | 0.00 | 0.00 | 94 | 1019.3 |
| 20260906100104 | 64 | 19 | 2.0 | 5.0 | 0.00 | 0.00 | 0.00 | 94 | 1019.1 |
| 20260906095558 | 64 | 28 | 2.0 | 5.0 | 0.00 | 0.00 | 0.00 | 94 | 1018.9 |
| 20260906095058 | 64 | 45 | 2.0 | 6.0 | 0.00 | 0.00 | 0.00 | 93 | 1018.9 |
| 20260906094600 | 64 | 47 | 2.0 | 9.0 | 0.00 | 0.00 | 0.00 | 93 | 1018.9 |
| 20260906094057 | 65 | 19 | 3.0 | 9.0 | 0.00 | 0.00 | 0.00 | 93 | 1018.9 |
| 20260906093558 | 64 | 30 | 4.0 | 8.0 | 0.00 | 0.00 | 0.00 | 93 | 1018.9 |
| 20260906093103 | 64 | 29 | 3.0 | 6.0 | 0.00 | 0.00 | 0.00 | 93 | 1019.0 |
| 20260906092558 | 64 | 30 | 4.0 | 8.0 | 0.00 | 0.00 | 0.00 | 93 | 1019.0 |
| 20260906092058 | 64 | 44 | 3.0 | 8.0 | 0.00 | 0.00 | 0.00 | 93 | 1019.0 |
| 20260906091605 | 64 | 41 | 4.0 | 7.0 | 0.00 | 0.00 | 0.00 | 93 | 1018.9 |
| 20260906091100 | 64 | 24 | 3.0 | 7.0 | 0.00 | 0.00 | 0.00 | 93 | 1019.0 |
| 20260906090558 | 64 | 28 | 3.0 | 7.0 | 0.00 | 0.00 | 0.00 | 93 | 1018.9 |
| 20260906090121 | 64 | 45 | 3.0 | 7.0 | 0.00 | 0.00 | 0.00 | 93 | 1018.9 |
| 20260906085559 | 64 | 16 | 4.0 | 7.0 | 0.00 | 0.00 | 0.00 | 93 | 1018.9 |
| 20260906085058 | 64 | 27 | 2.0 | 7.0 | 0.00 | 0.00 | 0.00 | 93 | 1019.0 |
| 20260906084601 | 65 | 46 | 4.0 | 8.0 | 0.00 | 0.00 | 0.00 | 93 | 1019.0 |
| 20260906084058 | 65 | 17 | 3.0 | 8.0 | 0.00 | 0.00 | 0.00 | 93 | 1018.9 |
| 20260906083602 | 65 | 41 | 3.0 | 7.0 | 0.00 | 0.00 | 0.00 | 93 | 1018.9 |
| 20260906083107 | 65 | 39 | 3.0 | 7.0 | 0.00 | 0.00 | 0.00 | 93 | 1018.8 |
| 20260906082558 | 65 | 44 | 2.0 | 6.0 | 0.00 | 0.00 | 0.00 | 93 | 1018.8 |
| 20260906082058 | 65 | 30 | 3.0 | 7.0 | 0.00 | 0.00 | 0.00 | 93 | 1018.9 |
| 20260906081603 | 65 | 20 | 3.0 | 7.0 | 0.00 | 0.00 | 0.00 | 93 | 1018.8 |
| 20260906081101 | 65 | 26 | 3.0 | 5.0 | 0.00 | 0.00 | 0.00 | 93 | 1018.9 |
| 20260906080601 | 65 | 25 | 2.0 | 4.0 | 0.00 | 0.00 | 0.00 | 92 | 1018.9 |
| 20260906080107 | 65 | 11 | 2.0 | 5.0 | 0.00 | 0.00 | 0.00 | 92 | 1019.0 |
| 20260906075558 | 65 | 5 | 2.0 | 5.0 | 0.00 | 0.00 | 0.00 | 92 | 1018.9 |
| 20260906075118 | 65 | 25 | 2.0 | 4.0 | 0.00 | 0.00 | 0.00 | 92 | 1018.9 |
| 20260906074608 | 65 | 34 | 1.0 | 4.0 | 0.00 | 0.00 | 0.00 | 92 | 1018.9 |
| 20260906074058 | 65 | 24 | 2.0 | 4.0 | 0.00 | 0.00 | 0.00 | 92 | 1018.9 |
| 20260906073558 | 64 | 19 | 2.0 | 3.0 | 0.00 | 0.00 | 0.00 | 92 | 1018.9 |
| 20260906073102 | 64 | 22 | 1.0 | 3.0 | 0.00 | 0.00 | 0.00 | 92 | 1018.9 |
| 20260906072558 | 64 | 21 | 1.0 | 4.0 | 0.00 | 0.00 | 0.00 | 92 | 1018.9 |
| 20260906072058 | 64 | 5 | 1.0 | 4.0 | 0.00 | 0.00 | 0.00 | 92 | 1019.0 |
| 20260906071602 | 64 | 5 | 1.0 | 3.0 | 0.00 | 0.00 | 0.00 | 92 | 1018.9 |
| 20260906071058 | 64 | 318 | 1.0 | 3.0 | 0.00 | 0.00 | 0.00 | 92 | 1018.8 |
| 20260906070559 | 64 | 342 | 1.0 | 3.0 | 0.00 | 0.00 | 0.00 | 92 | 1018.8 |
| 20260906070103 | 64 | 331 | 1.0 | 3.0 | 0.00 | 0.00 | 0.00 | 92 | 1018.8 |
| 20260906065600 | 64 | 331 | 1.0 | 3.0 | 0.00 | 0.00 | 0.00 | 92 | 1018.8 |
| 20260906065059 | 65 | 331 | 1.0 | 3.0 | 0.00 | 0.00 | 0.00 | 92 | 1018.9 |
| 20260906064600 | 65 | 331 | 1.0 | 3.0 | 0.00 | 0.00 | 0.00 | 92 | 1019.0 |
| 20260906064058 | 65 | 331 | 1.0 | 3.0 | 0.00 | 0.00 | 0.00 | 92 | 1019.1 |
| 20260906063600 | 65 | 298 | 1.0 | 3.0 | 0.00 | 0.00 | 0.00 | 92 | 1019.1 |
| 20260906063104 | 65 | 298 | 1.0 | 3.0 | 0.00 | 0.00 | 0.00 | 92 | 1019.2 |
| 20260906062557 | 65 | 298 | 0.0 | 3.0 | 0.00 | 0.00 | 0.00 | 92 | 1019.1 |
| 20260906062100 | 65 | 298 | 1.0 | 3.0 | 0.00 | 0.00 | 0.00 | 92 | 1019.1 |
| 20260906061604 | 65 | 317 | 0.0 | 2.0 | 0.00 | 0.00 | 0.00 | 92 | 1019.1 |
| 20260906061101 | 65 | 0 | 1.0 | 3.0 | 0.00 | 0.00 | 0.00 | 91 | 1019.1 |
| 20260906060558 | 65 | 321 | 1.0 | 3.0 | 0.00 | 0.00 | 0.00 | 92 | 1019.1 |
| 20260906060105 | 66 | 0 | 1.0 | 3.0 | 0.00 | 0.00 | 0.00 | 92 | 1019.1 |
| 20260906055558 | 66 | 321 | 1.0 | 3.0 | 0.00 | 0.00 | 0.00 | 92 | 1019.0 |
| 20260906055058 | 66 | 14 | 1.0 | 3.0 | 0.00 | 0.00 | 0.00 | 92 | 1018.9 |
| 20260906054608 | 66 | 5 | 1.0 | 4.0 | 0.00 | 0.00 | 0.00 | 92 | 1018.9 |
| 20260906054058 | 66 | 13 | 1.0 | 4.0 | 0.00 | 0.00 | 0.00 | 92 | 1018.9 |
| 20260906053601 | 66 | 5 | 1.0 | 4.0 | 0.00 | 0.00 | 0.00 | 92 | 1018.9 |
| 20260906053103 | 66 | 39 | 1.0 | 4.0 | 0.00 | 0.00 | 0.00 | 92 | 1018.9 |
| 20260906052559 | 66 | 29 | 2.0 | 4.0 | 0.00 | 0.00 | 0.00 | 92 | 1018.8 |
| 20260906052100 | 66 | 17 | 2.0 | 5.0 | 0.00 | 0.00 | 0.00 | 92 | 1018.7 |
| 20260906051612 | 66 | 20 | 2.0 | 5.0 | 0.00 | 0.00 | 0.00 | 91 | 1018.9 |
| 20260906051059 | 66 | 17 | 2.0 | 5.0 | 0.00 | 0.00 | 0.00 | 91 | 1018.9 |
| 20260906050601 | 66 | 26 | 3.0 | 5.0 | 0.00 | 0.00 | 0.00 | 91 | 1018.7 |
| 20260906050104 | 66 | 5 | 2.0 | 5.0 | 0.00 | 0.00 | 0.00 | 91 | 1018.6 |
| 20260906045559 | 66 | 16 | 2.0 | 5.0 | 0.00 | 0.00 | 0.00 | 91 | 1018.6 |
| 20260906045103 | 67 | 21 | 2.0 | 5.0 | 0.00 | 0.00 | 0.00 | 91 | 1018.6 |
| 20260906044609 | 67 | 28 | 2.0 | 5.0 | 0.00 | 0.00 | 0.00 | 91 | 1018.6 |
| 20260906044100 | 67 | 33 | 2.0 | 5.0 | 0.00 | 0.00 | 0.00 | 91 | 1018.5 |
| 20260906043559 | 67 | 11 | 2.0 | 5.0 | 0.00 | 0.00 | 0.00 | 91 | 1018.5 |
| 20260906043105 | 67 | 41 | 2.0 | 8.0 | 0.00 | 0.00 | 0.00 | 91 | 1018.4 |
| 20260906042600 | 67 | 25 | 2.0 | 8.0 | 0.00 | 0.00 | 0.00 | 91 | 1018.4 |
| 20260906042059 | 67 | 16 | 3.0 | 8.0 | 0.00 | 0.00 | 0.00 | 91 | 1018.3 |
| 20260906041601 | 67 | 27 | 3.0 | 8.0 | 0.00 | 0.00 | 0.00 | 91 | 1018.2 |
| 20260906041059 | 67 | 11 | 3.0 | 9.0 | 0.00 | 0.00 | 0.00 | 91 | 1018.1 |
| 20260906040600 | 68 | 33 | 4.0 | 9.0 | 0.00 | 0.00 | 0.00 | 91 | 1018.1 |
| 20260906040139 | 68 | 66 | 3.0 | 9.0 | 0.00 | 0.00 | 0.00 | 91 | 1018.1 |
| 20260906035559 | 68 | 37 | 5.0 | 9.0 | 0.00 | 0.00 | 0.00 | 90 | 1018.0 |
| 20260906035100 | 68 | 29 | 3.0 | 9.0 | 0.00 | 0.00 | 0.00 | 90 | 1018.1 |
| 20260906034611 | 68 | 47 | 3.0 | 9.0 | 0.00 | 0.00 | 0.00 | 91 | 1018.0 |
| 20260906034101 | 68 | 33 | 3.0 | 9.0 | 0.00 | 0.00 | 0.00 | 90 | 1017.8 |
| 20260906033559 | 68 | 47 | 4.0 | 10.0 | 0.00 | 0.00 | 0.00 | 90 | 1017.8 |
| 20260906033107 | 68 | 40 | 4.0 | 10.0 | 0.00 | 0.00 | 0.00 | 90 | 1017.8 |
| 20260906032559 | 68 | 75 | 4.0 | 10.0 | 0.00 | 0.00 | 0.00 | 90 | 1017.8 |
| 20260906032100 | 68 | 16 | 3.0 | 10.0 | 0.00 | 0.00 | 0.00 | 90 | 1017.8 |
| 20260906031605 | 68 | 78 | 4.0 | 9.0 | 0.00 | 0.00 | 0.00 | 90 | 1017.8 |
| 20260906031059 | 68 | 65 | 3.0 | 7.0 | 0.00 | 0.00 | 0.00 | 90 | 1017.9 |
| 20260906030600 | 68 | 64 | 4.0 | 7.0 | 0.00 | 0.00 | 0.00 | 90 | 1017.9 |
| 20260906030105 | 68 | 65 | 3.0 | 7.0 | 0.00 | 0.00 | 0.00 | 89 | 1017.8 |
| 20260906025559 | 68 | 81 | 2.0 | 10.0 | 0.00 | 0.00 | 0.00 | 89 | 1017.7 |
| 20260906025100 | 69 | 69 | 4.0 | 10.0 | 0.00 | 0.00 | 0.00 | 89 | 1017.7 |
| 20260906024614 | 69 | 64 | 3.0 | 10.0 | 0.00 | 0.00 | 0.00 | 89 | 1017.8 |
| 20260906024059 | 69 | 58 | 4.0 | 10.0 | 0.00 | 0.00 | 0.00 | 89 | 1017.8 |
| 20260906023603 | 69 | 58 | 4.0 | 10.0 | 0.00 | 0.00 | 0.00 | 89 | 1017.8 |
| 20260906023105 | 69 | 46 | 3.0 | 11.0 | 0.00 | 0.00 | 0.00 | 89 | 1017.8 |
| 20260906022602 | 69 | 11 | 5.0 | 11.0 | 0.00 | 0.00 | 0.00 | 89 | 1017.8 |
| 20260906022059 | 69 | 66 | 3.0 | 7.0 | 0.00 | 0.00 | 0.00 | 89 | 1017.7 |
| 20260906021603 | 69 | 88 | 3.0 | 9.0 | 0.00 | 0.00 | 0.00 | 88 | 1017.7 |
| 20260906021100 | 69 | 73 | 2.0 | 9.0 | 0.00 | 0.00 | 0.00 | 88 | 1017.8 |
| 20260906020600 | 69 | 103 | 4.0 | 10.0 | 0.00 | 0.00 | 0.00 | 88 | 1017.9 |
| 20260906020106 | 69 | 47 | 4.0 | 15.0 | 0.00 | 0.00 | 0.00 | 88 | 1017.9 |
| 20260906015559 | 69 | 51 | 4.0 | 15.0 | 0.00 | 0.00 | 0.00 | 88 | 1017.9 |
| 20260906015103 | 70 | 99 | 7.0 | 12.0 | 0.00 | 0.00 | 0.00 | 88 | 1017.8 |
| 20260906014600 | 70 | 61 | 5.0 | 9.0 | 0.00 | 0.00 | 0.00 | 88 | 1017.7 |
| 20260906014059 | 70 | 69 | 4.0 | 9.0 | 0.00 | 0.00 | 0.00 | 88 | 1017.5 |
| 20260906013602 | 70 | 55 | 3.0 | 9.0 | 0.00 | 0.00 | 0.00 | 88 | 1017.7 |
| 20260906013114 | 70 | 50 | 4.0 | 8.0 | 0.00 | 0.00 | 0.00 | 88 | 1017.7 |
| 20260906012559 | 70 | 76 | 3.0 | 10.0 | 0.00 | 0.00 | 0.00 | 88 | 1017.7 |
| 20260906012059 | 70 | 15 | 4.0 | 10.0 | 0.00 | 0.00 | 0.00 | 88 | 1017.7 |
| 20260906011605 | 70 | 16 | 3.0 | 10.0 | 0.00 | 0.00 | 0.00 | 88 | 1017.8 |
| 20260906011059 | 70 | 12 | 5.0 | 10.0 | 0.00 | 0.00 | 0.00 | 88 | 1017.7 |
| 20260906010600 | 70 | 38 | 4.0 | 10.0 | 0.00 | 0.00 | 0.00 | 88 | 1017.7 |
| 20260906010104 | 70 | 44 | 4.0 | 11.0 | 0.00 | 0.00 | 0.00 | 88 | 1017.8 |
| 20260906005601 | 70 | 339 | 3.0 | 12.0 | 0.00 | 0.00 | 0.00 | 88 | 1017.8 |
| 20260906005100 | 70 | 51 | 5.0 | 12.0 | 0.00 | 0.00 | 0.00 | 88 | 1017.7 |
| 20260906004604 | 70 | 71 | 7.0 | 12.0 | 0.00 | 0.00 | 0.00 | 87 | 1017.7 |
| 20260906004059 | 70 | 52 | 6.0 | 13.0 | 0.00 | 0.00 | 0.00 | 87 | 1017.5 |
| 20260906003600 | 70 | 30 | 5.0 | 13.0 | 0.00 | 0.00 | 0.00 | 87 | 1017.5 |
| 20260906003104 | 70 | 9 | 6.0 | 13.0 | 0.00 | 0.00 | 0.00 | 87 | 1017.6 |
| 20260906002603 | 71 | 23 | 6.0 | 13.0 | 0.00 | 0.00 | 0.00 | 87 | 1017.5 |
| 20260906002100 | 71 | 39 | 5.0 | 12.0 | 0.00 | 0.00 | 0.00 | 87 | 1017.4 |
| 20260906001610 | 71 | 34 | 5.0 | 12.0 | 0.00 | 0.00 | 0.00 | 87 | 1017.4 |
| 20260906001100 | 71 | 44 | 6.0 | 12.0 | 0.00 | 0.00 | 0.00 | 87 | 1017.5 |
| 20260906000602 | 71 | 47 | 6.0 | 15.0 | 0.00 | 0.00 | 0.00 | 86 | 1017.6 |
| 20260905235603 | 71 | 27 | 8.0 | 16.0 | 0.00 | 0.00 | 0.00 | 86 | 1017.3 |
| 20260905235059 | 71 | 342 | 8.0 | 14.0 | 0.00 | 0.00 | 0.00 | 86 | 1017.2 |
| 20260905234604 | 71 | 27 | 6.0 | 13.0 | 0.00 | 0.00 | 0.00 | 86 | 1017.2 |
| 20260905234100 | 72 | 72 | 5.0 | 11.0 | 0.00 | 0.00 | 0.00 | 85 | 1017.3 |
| 20260905233600 | 72 | 42 | 6.0 | 13.0 | 0.00 | 0.00 | 0.00 | 85 | 1017.3 |
| 20260905233104 | 72 | 77 | 5.0 | 13.0 | 0.00 | 0.00 | 0.00 | 85 | 1017.3 |
| 20260905232559 | 72 | 23 | 6.0 | 13.0 | 0.00 | 0.00 | 0.00 | 84 | 1017.4 |
| 20260905232101 | 72 | 22 | 7.0 | 15.0 | 0.00 | 0.00 | 0.00 | 83 | 1017.3 |
| 20260905231608 | 73 | 70 | 8.0 | 17.0 | 0.00 | 0.00 | 0.00 | 83 | 1017.5 |
| 20260905231100 | 73 | 75 | 6.0 | 17.0 | 0.00 | 0.00 | 0.00 | 82 | 1017.3 |
| 20260905230600 | 74 | 45 | 10.0 | 18.0 | 0.00 | 0.00 | 0.00 | 81 | 1017.3 |
| 20260905230108 | 74 | 61 | 11.0 | 18.0 | 0.00 | 0.00 | 0.00 | 81 | 1017.3 |
| 20260905225557 | 75 | 61 | 9.0 | 16.0 | 0.00 | 0.00 | 0.00 | 81 | 1017.3 |
| 20260905225058 | 75 | 63 | 10.0 | 16.0 | 0.00 | 0.00 | 0.00 | 80 | 1017.1 |
| 20260905224617 | 76 | 43 | 8.0 | 16.0 | 0.00 | 0.00 | 0.00 | 80 | 1017.0 |
| 20260905224058 | 76 | 13 | 8.0 | 16.0 | 0.00 | 0.00 | 0.00 | 80 | 1017.0 |
| 20260905223557 | 77 | 360 | 9.0 | 16.0 | 0.00 | 0.00 | 0.00 | 79 | 1016.8 |
| 20260905223116 | 77 | 27 | 5.0 | 13.0 | 0.00 | 0.00 | 0.00 | 79 | 1016.8 |
| 20260905222557 | 77 | 36 | 8.0 | 14.0 | 0.00 | 0.00 | 0.00 | 78 | 1016.8 |
| 20260905222056 | 78 | 65 | 8.0 | 18.0 | 0.00 | 0.00 | 0.00 | 78 | 1016.8 |
| 20260905221605 | 78 | 59 | 8.0 | 18.0 | 0.00 | 0.00 | 0.00 | 78 | 1017.0 |
| 20260905221058 | 78 | 360 | 6.0 | 13.0 | 0.00 | 0.00 | 0.00 | 79 | 1016.9 |
| 20260905220559 | 77 | 62 | 6.0 | 13.0 | 0.00 | 0.00 | 0.00 | 79 | 1016.9 |
| 20260905220105 | 77 | 41 | 7.0 | 12.0 | 0.00 | 0.00 | 0.00 | 79 | 1016.8 |
| 20260905215600 | 77 | 13 | 5.0 | 12.0 | 0.00 | 0.00 | 0.00 | 80 | 1016.7 |
| 20260905215100 | 77 | 93 | 5.0 | 17.0 | 0.00 | 0.00 | 0.00 | 79 | 1016.6 |
| 20260905214605 | 77 | 42 | 7.0 | 17.0 | 0.00 | 0.00 | 0.00 | 78 | 1016.5 |
| 20260905214057 | 78 | 71 | 7.0 | 13.0 | 0.00 | 0.00 | 0.00 | 78 | 1016.4 |
| 20260905213556 | 78 | 23 | 6.0 | 12.0 | 0.00 | 0.00 | 0.00 | 77 | 1016.5 |
| 20260905213113 | 79 | 11 | 6.0 | 12.0 | 0.00 | 0.00 | 0.00 | 77 | 1016.3 |
| 20260905212557 | 79 | 51 | 5.0 | 14.0 | 0.00 | 0.00 | 0.00 | 78 | 1016.3 |
| 20260905212057 | 79 | 19 | 8.0 | 14.0 | 0.00 | 0.00 | 0.00 | 78 | 1016.1 |
| 20260905211605 | 79 | 25 | 6.0 | 14.0 | 0.00 | 0.00 | 0.00 | 79 | 1016.2 |
| 20260905211057 | 79 | 65 | 5.0 | 15.0 | 0.00 | 0.00 | 0.00 | 78 | 1016.1 |
| 20260905210557 | 79 | 61 | 7.0 | 15.0 | 0.00 | 0.00 | 0.00 | 78 | 1016.0 |
| 20260905210108 | 80 | 14 | 8.0 | 13.0 | 0.00 | 0.00 | 0.00 | 76 | 1016.1 |
| 20260905205601 | 80 | 96 | 5.0 | 11.0 | 0.00 | 0.00 | 0.00 | 76 | 1016.1 |
| 20260905205057 | 81 | 68 | 5.0 | 10.0 | 0.00 | 0.00 | 0.00 | 76 | 1016.2 |
| 20260905204603 | 81 | 39 | 2.0 | 9.0 | 0.00 | 0.00 | 0.00 | 75 | 1016.3 |
| 20260905204056 | 81 | 26 | 4.0 | 10.0 | 0.00 | 0.00 | 0.00 | 74 | 1016.1 |
| 20260905203557 | 82 | 5 | 5.0 | 11.0 | 0.00 | 0.00 | 0.00 | 74 | 1016.1 |
| 20260905203103 | 82 | 333 | 4.0 | 11.0 | 0.00 | 0.00 | 0.00 | 75 | 1016.1 |
| 20260905202559 | 82 | 30 | 4.0 | 11.0 | 0.00 | 0.00 | 0.00 | 73 | 1016.0 |
| 20260905202057 | 83 | 64 | 5.0 | 10.0 | 0.00 | 0.00 | 0.00 | 73 | 1016.0 |
| 20260905201602 | 82 | 44 | 3.0 | 10.0 | 0.00 | 0.00 | 0.00 | 75 | 1016.1 |
| 20260905201057 | 82 | 0 | 3.0 | 9.0 | 0.00 | 0.00 | 0.00 | 74 | 1016.2 |
| 20260905200557 | 82 | 43 | 4.0 | 9.0 | 0.00 | 0.00 | 0.00 | 76 | 1016.1 |
| 20260905200105 | 81 | 5 | 4.0 | 9.0 | 0.00 | 0.00 | 0.00 | 75 | 1016.2 |
| 20260905195601 | 82 | 44 | 4.0 | 9.0 | 0.00 | 0.00 | 0.00 | 75 | 1016.2 |
| 20260905195059 | 81 | 360 | 3.0 | 9.0 | 0.00 | 0.00 | 0.00 | 76 | 1016.3 |
| 20260905194602 | 81 | 17 | 4.0 | 8.0 | 0.00 | 0.00 | 0.00 | 77 | 1016.3 |
| 20260905194101 | 80 | 318 | 4.0 | 9.0 | 0.00 | 0.00 | 0.00 | 78 | 1016.3 |
| 20260905193600 | 80 | 66 | 3.0 | 11.0 | 0.00 | 0.00 | 0.00 | 78 | 1016.4 |
| 20260905193107 | 80 | 55 | 5.0 | 11.0 | 0.00 | 0.00 | 0.00 | 79 | 1016.5 |
| 20260905192559 | 79 | 331 | 3.0 | 10.0 | 0.00 | 0.00 | 0.00 | 80 | 1016.4 |
| 20260905192059 | 79 | 26 | 5.0 | 10.0 | 0.00 | 0.00 | 0.00 | 79 | 1016.5 |
| 20260905191608 | 79 | 51 | 3.0 | 8.0 | 0.00 | 0.00 | 0.00 | 80 | 1016.6 |
| 20260905191059 | 79 | 5 | 4.0 | 11.0 | 0.00 | 0.00 | 0.00 | 79 | 1016.6 |
| 20260905190600 | 78 | 68 | 4.0 | 11.0 | 0.00 | 0.00 | 0.00 | 81 | 1016.6 |
| 20260905190106 | 78 | 84 | 7.0 | 11.0 | 0.00 | 0.00 | 0.00 | 81 | 1016.7 |
| 20260905185559 | 77 | 33 | 3.0 | 11.0 | 0.00 | 0.00 | 0.00 | 82 | 1016.8 |
| 20260905185059 | 77 | 24 | 5.0 | 11.0 | 0.00 | 0.00 | 0.00 | 82 | 1016.9 |
| 20260905184606 | 77 | 44 | 4.0 | 10.0 | 0.00 | 0.00 | 0.00 | 83 | 1016.9 |
| 20260905184059 | 77 | 55 | 4.0 | 9.0 | 0.00 | 0.00 | 0.00 | 84 | 1016.9 |
| 20260905183559 | 77 | 10 | 4.0 | 9.0 | 0.00 | 0.00 | 0.00 | 83 | 1017.0 |
| 20260905183106 | 76 | 9 | 3.0 | 8.0 | 0.00 | 0.00 | 0.00 | 83 | 1017.0 |
| 20260905182558 | 76 | 17 | 3.0 | 8.0 | 0.00 | 0.00 | 0.00 | 84 | 1017.0 |
| 20260905182059 | 76 | 33 | 3.0 | 8.0 | 0.00 | 0.00 | 0.00 | 84 | 1017.0 |
| 20260905181604 | 76 | 16 | 3.0 | 8.0 | 0.00 | 0.00 | 0.00 | 83 | 1016.8 |
| 20260905181059 | 76 | 15 | 5.0 | 8.0 | 0.00 | 0.00 | 0.00 | 84 | 1016.8 |
| 20260905180602 | 76 | 9 | 3.0 | 10.0 | 0.00 | 0.00 | 0.00 | 84 | 1016.8 |
| 20260905180109 | 76 | 18 | 4.0 | 10.0 | 0.00 | 0.00 | 0.00 | 84 | 1016.9 |
| 20260905175559 | 76 | 55 | 4.0 | 9.0 | 0.00 | 0.00 | 0.00 | 83 | 1016.9 |
| 20260905175059 | 76 | 35 | 3.0 | 11.0 | 0.00 | 0.00 | 0.00 | 83 | 1016.9 |
| 20260905174606 | 76 | 67 | 4.0 | 11.0 | 0.00 | 0.00 | 0.00 | 83 | 1016.8 |
| 20260905174100 | 76 | 46 | 5.0 | 11.0 | 0.00 | 0.00 | 0.00 | 84 | 1016.8 |
| 20260905173600 | 76 | 41 | 5.0 | 11.0 | 0.00 | 0.00 | 0.00 | 85 | 1016.7 |
| 20260905173134 | 75 | 360 | 6.0 | 11.0 | 0.00 | 0.00 | 0.00 | 85 | 1016.7 |
| 20260905172602 | 75 | 41 | 5.0 | 11.0 | 0.00 | 0.00 | 0.00 | 87 | 1016.8 |
| 20260905172059 | 75 | 62 | 3.0 | 10.0 | 0.00 | 0.00 | 0.00 | 87 | 1016.9 |
| 20260905171609 | 75 | 23 | 5.0 | 10.0 | 0.00 | 0.00 | 0.00 | 87 | 1017.0 |
| 20260905171058 | 74 | 332 | 4.0 | 12.0 | 0.00 | 0.00 | 0.00 | 87 | 1017.0 |
| 20260905170559 | 74 | 20 | 6.0 | 12.0 | 0.00 | 0.00 | 0.00 | 87 | 1017.0 |
| 20260905170115 | 74 | 32 | 3.0 | 12.0 | 0.00 | 0.00 | 0.00 | 87 | 1017.1 |
| 20260905165602 | 74 | 35 | 3.0 | 12.0 | 0.00 | 0.05 | 0.00 | 87 | 1017.1 |
| 20260905165058 | 74 | 20 | 5.0 | 12.0 | 0.00 | 0.05 | 0.00 | 87 | 1017.1 |
| 20260905164609 | 74 | 19 | 3.0 | 12.0 | 0.00 | 0.05 | 0.00 | 88 | 1017.1 |
| 20260905164100 | 74 | 32 | 5.0 | 12.0 | 0.00 | 0.05 | 0.00 | 87 | 1017.1 |
| 20260905163559 | 74 | 22 | 4.0 | 12.0 | 0.00 | 0.05 | 0.00 | 88 | 1017.2 |
| 20260905163127 | 74 | 5 | 6.0 | 10.0 | 0.00 | 0.05 | 0.00 | 88 | 1017.1 |
| 20260905162559 | 74 | 17 | 5.0 | 11.0 | 0.00 | 0.05 | 0.00 | 88 | 1017.1 |
| 20260905162058 | 74 | 33 | 4.0 | 11.0 | 0.00 | 0.05 | 0.00 | 88 | 1017.1 |
| 20260905161616 | 74 | 25 | 4.0 | 10.0 | 0.00 | 0.05 | 0.00 | 89 | 1017.1 |
| 20260905161059 | 74 | 49 | 5.0 | 11.0 | 0.00 | 0.05 | 0.00 | 88 | 1017.1 |
| 20260905160600 | 74 | 54 | 3.0 | 11.0 | 0.00 | 0.05 | 0.00 | 88 | 1017.1 |
| 20260905160106 | 74 | 74 | 4.0 | 11.0 | 0.00 | 0.05 | 0.00 | 88 | 1017.1 |
| 20260905155558 | 74 | 42 | 5.0 | 11.0 | 0.00 | 0.05 | 0.00 | 88 | 1017.2 |
| 20260905155100 | 74 | 76 | 4.0 | 12.0 | 0.00 | 0.05 | 0.00 | 88 | 1017.0 |
| 20260905154616 | 74 | 53 | 6.0 | 12.0 | 0.00 | 0.05 | 0.00 | 88 | 1016.9 |
| 20260905154102 | 74 | 46 | 4.0 | 12.0 | 0.00 | 0.05 | 0.00 | 89 | 1016.7 |
| 20260905153558 | 74 | 52 | 5.0 | 12.0 | 0.00 | 0.05 | 0.00 | 89 | 1016.7 |
| 20260905153105 | 74 | 78 | 7.0 | 12.0 | 0.00 | 0.05 | 0.00 | 89 | 1016.7 |
| 20260905152559 | 74 | 32 | 5.0 | 10.0 | 0.00 | 0.05 | 0.00 | 89 | 1016.7 |
| 20260905152058 | 74 | 34 | 4.0 | 10.0 | 0.00 | 0.05 | 0.00 | 90 | 1016.7 |
| 20260905151603 | 74 | 57 | 3.0 | 10.0 | 0.00 | 0.05 | 0.00 | 90 | 1016.5 |
| 20260905151059 | 74 | 9 | 5.0 | 10.0 | 0.00 | 0.05 | 0.00 | 91 | 1016.4 |
| 20260905150558 | 74 | 59 | 4.0 | 10.0 | 0.00 | 0.05 | 0.00 | 91 | 1016.4 |
| 20260905150110 | 74 | 36 | 2.0 | 10.0 | 0.00 | 0.05 | 0.00 | 91 | 1016.4 |
| 20260905145559 | 74 | 0 | 3.0 | 10.0 | 0.00 | 0.05 | 0.00 | 91 | 1016.4 |
| 20260905145102 | 73 | 36 | 5.0 | 10.0 | 0.00 | 0.05 | 0.00 | 91 | 1016.3 |
| 20260905144609 | 73 | 5 | 4.0 | 9.0 | 0.00 | 0.05 | 0.00 | 92 | 1016.2 |
| 20260905144058 | 73 | 13 | 3.0 | 8.0 | 0.00 | 0.05 | 0.00 | 92 | 1016.3 |
| 20260905143601 | 73 | 15 | 4.0 | 8.0 | 0.00 | 0.05 | 0.00 | 92 | 1016.2 |
| 20260905143109 | 73 | 63 | 4.0 | 8.0 | 0.00 | 0.05 | 0.00 | 93 | 1016.2 |
| 20260905142603 | 73 | 114 | 2.0 | 7.0 | 0.00 | 0.05 | 0.00 | 93 | 1016.2 |
| 20260905142058 | 72 | 15 | 2.0 | 9.0 | 0.00 | 0.05 | 0.00 | 93 | 1016.1 |
| 20260905141606 | 72 | 15 | 4.0 | 10.0 | 0.00 | 0.05 | 0.00 | 93 | 1016.2 |
| 20260905141058 | 72 | 36 | 3.0 | 10.0 | 0.00 | 0.05 | 0.00 | 93 | 1016.3 |
| 20260905140559 | 72 | 25 | 5.0 | 9.0 | 0.00 | 0.05 | 0.00 | 93 | 1016.2 |
| 20260905140110 | 72 | 26 | 4.0 | 9.0 | 0.00 | 0.05 | 0.00 | 93 | 1016.1 |
| 20260905135558 | 72 | 5 | 3.0 | 9.0 | 0.00 | 0.05 | 0.00 | 93 | 1015.9 |
| 20260905135102 | 72 | 21 | 4.0 | 9.0 | 0.00 | 0.05 | 0.00 | 94 | 1015.9 |
| 20260905134602 | 72 | 50 | 3.0 | 11.0 | 0.00 | 0.05 | 0.00 | 93 | 1016.1 |
| 20260905134059 | 71 | 36 | 4.0 | 12.0 | 0.00 | 0.05 | 0.00 | 93 | 1016.1 |
| 20260905133557 | 71 | 29 | 6.0 | 12.0 | 0.00 | 0.05 | 0.00 | 93 | 1016.0 |
| 20260905133107 | 71 | 46 | 5.0 | 12.0 | 0.00 | 0.05 | 0.00 | 93 | 1016.1 |
| 20260905132558 | 71 | 36 | 5.0 | 13.0 | 0.00 | 0.05 | 0.00 | 93 | 1016.0 |
| 20260905132059 | 71 | 49 | 6.0 | 13.0 | 0.00 | 0.05 | 0.00 | 94 | 1016.1 |
| 20260905131608 | 71 | 33 | 6.0 | 11.0 | 0.00 | 0.05 | 0.00 | 94 | 1016.2 |
| 20260905131100 | 71 | 342 | 6.0 | 10.0 | 0.00 | 0.05 | 0.00 | 94 | 1016.4 |
| 20260905130559 | 71 | 326 | 2.0 | 9.0 | 0.00 | 0.05 | 0.00 | 94 | 1016.2 |
| 20260905130104 | 71 | 17 | 5.0 | 9.0 | 0.00 | 0.05 | 0.00 | 94 | 1015.9 |
| 20260905125618 | 71 | 40 | 5.0 | 9.0 | 0.00 | 0.05 | 0.00 | 94 | 1015.7 |
| 20260905125058 | 71 | 38 | 4.0 | 11.0 | 0.00 | 0.05 | 0.00 | 94 | 1015.7 |
| 20260905124601 | 71 | 15 | 5.0 | 11.0 | 0.00 | 0.05 | 0.00 | 94 | 1015.8 |
| 20260905124059 | 71 | 32 | 4.0 | 9.0 | 0.00 | 0.05 | 0.00 | 93 | 1015.7 |
| 20260905123558 | 71 | 24 | 5.0 | 10.0 | 0.00 | 0.05 | 0.00 | 94 | 1015.7 |
| 20260905123109 | 71 | 23 | 4.0 | 10.0 | 0.00 | 0.05 | 0.00 | 94 | 1015.4 |
| 20260905122559 | 71 | 57 | 5.0 | 10.0 | 0.00 | 0.05 | 0.00 | 94 | 1015.4 |
| 20260905122059 | 71 | 35 | 4.0 | 10.0 | 0.00 | 0.05 | 0.00 | 93 | 1015.2 |
| 20260905121605 | 70 | 15 | 3.0 | 10.0 | 0.00 | 0.05 | 0.00 | 93 | 1015.2 |
| 20260905121059 | 70 | 51 | 4.0 | 10.0 | 0.00 | 0.05 | 0.00 | 93 | 1015.2 |
| 20260905120559 | 70 | 59 | 4.0 | 10.0 | 0.00 | 0.05 | 0.00 | 93 | 1015.2 |
| 20260905120106 | 70 | 42 | 5.0 | 10.0 | 0.00 | 0.05 | 0.00 | 93 | 1015.0 |
| 20260905115558 | 70 | 32 | 5.0 | 9.0 | 0.00 | 0.05 | 0.00 | 93 | 1015.0 |
| 20260905115058 | 70 | 58 | 5.0 | 9.0 | 0.00 | 0.05 | 0.00 | 93 | 1015.0 |
| 20260905114604 | 70 | 19 | 3.0 | 9.0 | 0.00 | 0.05 | 0.00 | 93 | 1014.9 |
| 20260905114058 | 70 | 26 | 2.0 | 9.0 | 0.00 | 0.05 | 0.00 | 93 | 1014.7 |
| 20260905113559 | 70 | 81 | 5.0 | 11.0 | 0.00 | 0.05 | 0.00 | 93 | 1014.7 |
| 20260905113101 | 70 | 78 | 6.0 | 11.0 | 0.00 | 0.05 | 0.00 | 93 | 1014.6 |
| 20260905112559 | 70 | 49 | 6.0 | 11.0 | 0.00 | 0.05 | 0.00 | 93 | 1014.5 |
| 20260905112100 | 70 | 64 | 5.0 | 9.0 | 0.00 | 0.05 | 0.00 | 93 | 1014.5 |
| 20260905111601 | 70 | 42 | 3.0 | 8.0 | 0.00 | 0.05 | 0.00 | 93 | 1014.5 |